Weather History for Fort Lewis, WA

Change the Weather History Date:

Monday, November 19, 2012

  Actual Average Record
Temperature  
Mean Temperature 50 °F -  
Max Temperature 56 °F 48 °F 59 °F (2001)
Min Temperature 43 °F 35 °F 24 °F (2000)
Degree Days  
Heating Degree Days 15    
Moisture  
Dew Point 48 °F    
Average Humidity 88    
Maximum Humidity 100    
Minimum Humidity 72    
Precipitation  
Precipitation 1.70 in - - ()
Sea Level Pressure  
Sea Level Pressure 29.50 in    
Wind  
Wind Speed 15 mph (SSE)    
Max Wind Speed 30 mph    
Max Gust Speed 40 mph    
Visibility 7 miles    
Events Rain    
Averages and records for this station are not official NWS values.
T = Trace of Precipitation, MM = Missing Value Source: NWS Daily Summary

Daily Weather History Graph

Daily Weather History Graph

Search for Another Location

Airport:

Trip Planner

Search our weather history database for the weather conditions in past years. The results will help you decide how hot, cold, wet, or windy it might be!

Date:

Astronomy

Nov. 19, 2012 Rise Set
Actual Time 7:20 AM PST 4:30 PM PST
Civil Twilight 6:46 AM PST 5:04 PM PST
Nautical Twilight 6:09 AM PST 5:41 PM PST
Astronomical Twilight 5:33 AM PST 6:17 PM PST
Moon 12:17 PM PST 11:15 PM PST
Length of Visible Light 10h 17m
Length of Day
9h 10m
Waxing Crescent, 42% of the Moon is Illuminated
Nov 19
Waxing Crescent
Nov 20
First Quarter
Nov 28
Full
Dec 6
Last Quarter
Dec 13
New

Hourly Weather History & Observations

Time (PST) Temp. Windchill Dew Point Humidity Pressure Visibility Wind Dir Wind Speed Gust Speed Precip Events Conditions
12:58 AM 49.3 °F - 43.0 °F 79% 29.57 in 10.0 mi ESE 11.5 mph - N/A   Overcast
1:12 AM 50.0 °F - 42.8 °F 76% 29.55 in 10.0 mi ESE 15.0 mph 17.3 mph N/A   Light Drizzle
1:27 AM 48.2 °F - 44.6 °F 87% 29.56 in 7.0 mi SE 18.4 mph - N/A Rain Light Rain
1:32 AM 48.2 °F - 44.6 °F 87% 29.57 in 5.0 mi SE 13.8 mph - N/A Rain Light Rain
1:34 AM 48.2 °F - 44.6 °F 87% 29.56 in 4.0 mi ESE 16.1 mph - N/A   Overcast
1:37 AM 48.2 °F - 44.6 °F 87% 29.56 in 4.0 mi ESE 15.0 mph - N/A Rain Light Rain
1:45 AM 48.2 °F - 44.6 °F 87% 29.57 in 4.0 mi ESE 13.8 mph - N/A Rain Light Rain
1:50 AM 48.2 °F - 44.6 °F 87% 29.56 in 5.0 mi ESE 16.1 mph - N/A Rain Light Rain
1:58 AM 47.5 °F - 45.0 °F 91% 29.57 in 7.0 mi ESE 20.7 mph 27.6 mph N/A Rain Light Rain
2:13 AM 46.4 °F 38.7 °F 44.6 °F 93% 29.56 in 5.0 mi ESE 20.7 mph 28.8 mph N/A Rain Light Rain
2:23 AM 48.2 °F - 44.6 °F 87% 29.56 in 9.0 mi ESE 17.3 mph 26.5 mph N/A   Light Drizzle
2:28 AM 48.2 °F - 44.6 °F 87% 29.56 in 10.0 mi ESE 17.3 mph 25.3 mph N/A   Light Drizzle
2:30 AM 48.2 °F - 44.6 °F 87% 29.56 in 10.0 mi ESE 16.1 mph - N/A   Mostly Cloudy
2:35 AM 48.2 °F - 44.6 °F 87% 29.57 in 10.0 mi ESE 13.8 mph - N/A   Overcast
2:41 AM 46.4 °F 40.1 °F 44.6 °F 93% 29.56 in 10.0 mi ESE 15.0 mph - N/A   Light Drizzle
2:58 AM 47.1 °F - 44.4 °F 90% 29.59 in 10.0 mi ESE 10.4 mph - 0.06 in   Light Drizzle
3:03 AM 46.4 °F 42.4 °F 44.6 °F 93% 29.56 in 8.0 mi East 8.1 mph 17.3 mph N/A   Light Drizzle
3:18 AM 46.4 °F 40.1 °F 44.6 °F 93% 29.55 in 5.0 mi ESE 15.0 mph - N/A Rain Light Rain
3:23 AM 46.4 °F 40.1 °F 44.6 °F 93% 29.55 in 5.0 mi ESE 15.0 mph - N/A Rain Light Rain
3:58 AM 47.1 °F - 45.5 °F 94% 29.57 in 5.0 mi ESE 8.1 mph - 0.17 in Rain Light Rain
4:11 AM 46.4 °F 43.5 °F 46.4 °F 100% 29.55 in 6.0 mi ESE 5.8 mph - N/A Rain Light Rain
4:16 AM 46.4 °F 44.3 °F 46.4 °F 100% 29.54 in 5.0 mi East 4.6 mph - N/A Rain Light Rain
4:56 AM 48.2 °F - 46.4 °F 93% 29.53 in 7.0 mi ESE 4.6 mph - N/A Rain Light Rain
4:58 AM 47.5 °F - 46.4 °F 96% 29.55 in 7.0 mi ESE 4.6 mph - 0.14 in Rain Light Rain
5:32 AM 48.2 °F - 46.4 °F 93% 29.51 in 5.0 mi East 6.9 mph - N/A Rain Light Rain
5:58 AM 48.4 °F - 47.3 °F 96% 29.51 in 8.0 mi East 4.6 mph - 0.17 in Rain Light Rain
6:55 AM 49.8 °F - 48.4 °F 95% 29.47 in 9.0 mi ESE 6.9 mph - 0.14 in Rain Light Rain
7:55 AM 51.8 °F - 50.0 °F 94% 29.44 in 7.0 mi SE 8.1 mph 17.3 mph N/A Rain Light Rain
7:58 AM 51.6 °F - 50.2 °F 95% 29.45 in 7.0 mi ESE 8.1 mph 17.3 mph 0.15 in Rain Light Rain
8:58 AM 53.2 °F - 50.4 °F 90% 29.44 in 10.0 mi SSE 19.6 mph 24.2 mph 0.10 in Rain Light Rain
10:55 AM 55.4 °F - 50.7 °F 84% 29.37 in 10.0 mi SSE 29.9 mph 39.1 mph 0.05 in   Light Drizzle
11:18 AM 55.4 °F - 50.0 °F 82% 29.36 in 10.0 mi SSE 21.9 mph 39.1 mph N/A   Partly Cloudy
11:30 AM 55.4 °F - 50.0 °F 82% 29.36 in 9.0 mi SSE 24.2 mph 40.3 mph N/A Rain Light Rain
11:41 AM 55.4 °F - 50.0 °F 82% 29.36 in 9.0 mi SSE 24.2 mph 39.1 mph N/A Rain Light Rain
11:50 AM 55.4 °F - 51.8 °F 88% 29.36 in 7.0 mi SSE 23.0 mph 31.1 mph N/A   Overcast
11:55 AM 55.0 °F - 51.1 °F 86% 29.37 in 7.0 mi SSE 23.0 mph 31.1 mph 0.09 in   Overcast
12:20 PM 55.4 °F - 51.8 °F 88% 29.35 in 6.0 mi SSE 25.3 mph 34.5 mph N/A Rain Light Rain
12:29 PM 55.4 °F - 51.8 °F 88% 29.36 in 8.0 mi SSE 25.3 mph 33.4 mph N/A   Overcast
12:40 PM 55.4 °F - 51.8 °F 88% 29.36 in 9.0 mi SSE 25.3 mph 33.4 mph N/A Rain Light Rain
12:52 PM 55.4 °F - 51.8 °F 88% 29.39 in 9.0 mi South 23.0 mph 33.4 mph N/A   Overcast
12:58 PM 55.4 °F - 51.6 °F 87% 29.40 in 8.0 mi South 19.6 mph 33.4 mph 0.17 in   Overcast
1:02 PM 55.4 °F - 51.8 °F 88% 29.40 in 6.0 mi South 23.0 mph 31.1 mph N/A Rain Light Rain
1:07 PM 55.4 °F - 51.8 °F 88% 29.43 in 5.0 mi SSW 18.4 mph 33.4 mph N/A Rain Light Rain
1:08 PM 55.4 °F - 51.8 °F 88% 29.43 in 5.0 mi SSW 18.4 mph 33.4 mph N/A Rain Light Rain
1:13 PM 55.4 °F - 51.8 °F 88% 29.43 in 2.0 mi SW 20.7 mph 33.4 mph N/A Rain Light Rain
1:18 PM 53.6 °F - 51.8 °F 94% 29.45 in 1.2 mi SSW 18.4 mph 34.5 mph N/A Rain Light Rain
1:23 PM 53.6 °F - 51.8 °F 94% 29.45 in 1.5 mi South 19.6 mph 34.5 mph N/A Rain Light Rain
1:24 PM 53.6 °F - 51.8 °F 94% 29.45 in 1.8 mi South 17.3 mph 34.5 mph N/A   Overcast
1:27 PM 53.6 °F - 50.0 °F 88% 29.45 in 2.5 mi South 15.0 mph 28.8 mph N/A Rain Rain
1:32 PM 53.6 °F - 50.0 °F 88% 29.45 in 4.0 mi South 18.4 mph 27.6 mph N/A Rain Rain
1:37 PM 53.6 °F - 50.0 °F 88% 29.45 in 4.0 mi South 23.0 mph 31.1 mph N/A   Haze
1:46 PM 53.6 °F - 50.0 °F 88% 29.44 in 5.0 mi South 19.6 mph 31.1 mph N/A Rain Light Rain
1:58 PM 53.4 °F - 47.5 °F 80% 29.39 in 10.0 mi SE 26.5 mph 34.5 mph 0.33 in Rain Light Rain
2:08 PM 53.6 °F - 46.4 °F 77% 29.44 in 10.0 mi South 16.1 mph 26.5 mph N/A   Scattered Clouds
2:36 PM 53.6 °F - 46.4 °F 77% 29.43 in 10.0 mi South 18.4 mph 26.5 mph N/A   Light Drizzle
2:54 PM 53.6 °F - 48.2 °F 82% 29.43 in 10.0 mi South 15.0 mph 21.9 mph N/A   Mostly Cloudy
2:58 PM 53.6 °F - 47.7 °F 80% 29.44 in 10.0 mi South 11.5 mph 21.9 mph 0.01 in   Mostly Cloudy
3:58 PM 56.3 °F - 47.5 °F 72% 29.45 in 10.0 mi SSE 16.1 mph 31.1 mph N/A   Partly Cloudy
4:47 PM 55.4 °F - 48.2 °F 77% 29.46 in 10.0 mi SSE 23.0 mph 31.1 mph N/A   Light Drizzle
4:48 PM 55.4 °F - 48.2 °F 77% 29.46 in 10.0 mi SSE 23.0 mph 31.1 mph N/A   Light Drizzle
4:51 PM 55.4 °F - 48.2 °F 77% 29.47 in 10.0 mi SSE 20.7 mph 31.1 mph N/A   Light Drizzle
4:52 PM 55.4 °F - 48.2 °F 77% 29.47 in 10.0 mi South 19.6 mph 31.1 mph N/A   Partly Cloudy
4:58 PM 55.4 °F - 48.6 °F 78% 29.47 in 10.0 mi South 18.4 mph 31.1 mph 0.00 in   Partly Cloudy
5:00 PM 55.4 °F - 48.2 °F 77% 29.47 in 10.0 mi SSE 20.7 mph 26.5 mph N/A   Light Drizzle
5:06 PM 55.4 °F - 48.2 °F 77% 29.48 in 10.0 mi South 17.3 mph 26.5 mph N/A   Light Drizzle
5:33 PM 53.6 °F - 48.2 °F 82% 29.51 in 10.0 mi South 18.4 mph 24.2 mph N/A   Overcast
5:38 PM 53.6 °F - 48.2 °F 82% 29.50 in 10.0 mi South 15.0 mph 26.5 mph N/A Rain Light Rain
5:43 PM 53.6 °F - 48.2 °F 82% 29.50 in 10.0 mi South 19.6 mph 26.5 mph N/A Rain Light Rain
5:52 PM 53.6 °F - 48.2 °F 82% 29.50 in 10.0 mi South 12.7 mph 23.0 mph N/A   Mostly Cloudy
5:58 PM 53.2 °F - 48.6 °F 84% 29.51 in 10.0 mi South 19.6 mph 24.2 mph N/A   Mostly Cloudy
6:28 PM 51.8 °F - 48.2 °F 88% 29.54 in 8.0 mi SW 13.8 mph 25.3 mph N/A   Light Drizzle
6:29 PM 51.8 °F - 48.2 °F 88% 29.54 in 7.0 mi SSW 15.0 mph 25.3 mph N/A   Light Drizzle
6:34 PM 51.8 °F - 50.0 °F 94% 29.56 in 5.0 mi SSW 15.0 mph 24.2 mph N/A   Light Drizzle
6:38 PM 51.8 °F - 50.0 °F 94% 29.55 in 4.0 mi SW 11.5 mph 20.7 mph N/A   Overcast
6:45 PM 51.8 °F - 48.2 °F 88% 29.55 in 3.0 mi SSW 15.0 mph 24.2 mph N/A Rain Light Rain
6:50 PM 51.8 °F - 48.2 °F 88% 29.55 in 5.0 mi SSW 16.1 mph 24.2 mph N/A Rain Light Rain
6:55 PM 51.8 °F - 48.2 °F 88% 29.56 in 10.0 mi South 10.4 mph 23.0 mph N/A Rain Light Rain
6:56 PM 51.8 °F - 48.2 °F 88% 29.56 in 10.0 mi South 10.4 mph 23.0 mph N/A   Overcast
6:58 PM 51.8 °F - 48.2 °F 88% 29.56 in 10.0 mi South 10.4 mph 21.9 mph 0.12 in   Mostly Cloudy
7:03 PM 51.8 °F - 48.2 °F 88% 29.57 in 10.0 mi South 9.2 mph - N/A   Overcast
7:58 PM 50.2 °F - 47.8 °F 92% 29.60 in 10.0 mi South 6.9 mph - N/A   Scattered Clouds
8:58 PM 46.6 °F - 45.7 °F 97% 29.63 in 10.0 mi SE 3.5 mph - N/A   Partly Cloudy
9:23 PM 46.4 °F 43.5 °F 44.6 °F 93% 29.64 in 1.2 mi SE 5.8 mph - N/A   Partly Cloudy
9:28 PM 46.4 °F 43.5 °F 44.6 °F 93% 29.65 in 0.8 mi SE 5.8 mph - N/A   Scattered Clouds
9:33 PM 44.6 °F 41.4 °F 44.6 °F 100% 29.65 in 1.8 mi SE 5.8 mph - N/A   Scattered Clouds
9:38 PM 46.4 °F 43.5 °F 46.4 °F 100% 29.65 in 6.0 mi SE 5.8 mph - N/A   Mostly Cloudy
9:58 PM 45.9 °F 42.3 °F 45.5 °F 99% 29.65 in 10.0 mi SE 6.9 mph - N/A   Partly Cloudy
10:58 PM 46.6 °F - 46.2 °F 99% 29.66 in 10.0 mi SSE 4.6 mph - N/A   Mostly Cloudy
11:58 PM 43.5 °F 40.9 °F 43.3 °F 99% 29.69 in 10.0 mi SSE 4.6 mph - N/A   Partly Cloudy